Lebanon, NH

10:03 PM EDT on May 29, 2017 (GMT -0400)
Lebanon Municipal

Weather History for KLEB - September, 2012

Change the Weather History Date:

Monday, September 17, 2012

  Actual Average Record
Temperature  
Mean Temperature 58 °F -  
Max Temperature 78 °F 69 °F 84 °F (1942)
Min Temperature 37 °F 48 °F 30 °F (1948)
Degree Days  
Heating Degree Days 8    
Growing Degree Days 8 (Base 50)    
Moisture  
Dew Point 43 °F    
Average Humidity 82    
Maximum Humidity 100    
Minimum Humidity 39    
Precipitation  
Precipitation 0.00 in - - ()
Sea Level Pressure  
Sea Level Pressure 30.06 in    
Wind  
Wind Speed 2 mph (SSE)    
Max Wind Speed 9 mph    
Max Gust Speed -    
Visibility 5 miles    
Events Fog    
Averages and records for this station are not official NWS values.
T = Trace of Precipitation, MM = Missing Value Source: NWS Daily Summary

Daily Weather History Graph

Daily Weather History Graph

Search for Another Location

Airport or City:

Trip Planner

Search our weather history database for the weather conditions in past years. The results will help you decide how hot, cold, wet, or windy it might be!

Date:

Astronomy

Sep. 17, 2012 Rise Set
Actual Time 6:31 AM EDT 6:54 PM EDT
Civil Twilight 6:02 AM EDT 7:23 PM EDT
Nautical Twilight 5:28 AM EDT 7:57 PM EDT
Astronomical Twilight 4:53 AM EDT 8:32 PM EDT
Moon 8:22 AM EDT (9/17) 7:28 PM EDT (9/17)
Length of Visible Light 13h 21m
Length of Day
12h 23m
Waxing Crescent, 3% of the Moon is Illuminated
Sep 17
Waxing Crescent
Sep 22
First Quarter
Sep 29
Full
Oct 8
Last Quarter
Oct 15
New

Hourly Weather History & Observations

Time (EDT) Temp. Windchill Dew Point Humidity Pressure Visibility Wind Dir Wind Speed Gust Speed Precip Events Conditions
12:53 AM 41.0 °F 38.0 °F 37.9 °F 89% 30.06 in 10.0 mi NE 4.6 mph - N/A   Clear
1:09 AM 39.2 °F - 37.4 °F 93% 30.06 in 10.0 mi Calm Calm - N/A   Partly Cloudy
1:53 AM 39.9 °F - 37.0 °F 89% 30.06 in 10.0 mi Calm Calm - N/A   Clear
2:11 AM 37.4 °F - 35.6 °F 93% 30.07 in 10.0 mi Calm Calm - N/A   Partly Cloudy
2:29 AM 37.4 °F - 35.6 °F 93% 30.07 in 10.0 mi Calm Calm - N/A   Mostly Cloudy
2:53 AM 39.0 °F 36.8 °F 35.1 °F 86% 30.06 in 10.0 mi South 3.5 mph - N/A   Mostly Cloudy
3:08 AM 37.4 °F 34.9 °F 35.6 °F 93% 30.06 in 1.8 mi NE 3.5 mph - N/A   Mostly Cloudy
3:18 AM 39.2 °F - 37.4 °F 93% 30.07 in 3.0 mi Calm Calm - N/A   Mostly Cloudy
3:49 AM 41.0 °F 39.0 °F 39.2 °F 93% 30.07 in 1.8 mi SE 3.5 mph - N/A   Overcast
3:53 AM 41.0 °F - 39.0 °F 93% 30.07 in 1.0 mi Calm Calm - N/A   Mist
4:15 AM 39.2 °F - 39.2 °F 100% 30.08 in 0.5 mi Calm Calm - N/A Fog Fog
4:53 AM 41.0 °F - 39.9 °F 96% 30.08 in 0.8 mi Calm Calm - N/A   Mist
5:06 AM 42.8 °F - 39.2 °F 87% 30.08 in 0.2 mi Calm Calm - N/A Fog Fog
5:15 AM 41.0 °F - 39.2 °F 93% 30.08 in 0.2 mi Calm Calm - N/A Fog Fog
5:22 AM 42.8 °F - 39.2 °F 87% 30.09 in 0.2 mi Calm Calm - N/A Fog Fog
5:53 AM 41.0 °F - 39.0 °F 93% 30.09 in 0.2 mi Calm Calm - N/A Fog Fog
6:00 AM 41.0 °F - 39.2 °F 93% 30.09 in 0.2 mi Calm Calm - N/A Fog Fog
6:22 AM 41.0 °F - 39.2 °F 93% 30.09 in 0.5 mi Calm Calm - N/A Fog Fog
6:40 AM 41.0 °F - 39.2 °F 93% 30.09 in 0.2 mi Calm Calm - N/A Fog Fog
6:53 AM 41.0 °F - 39.9 °F 96% 30.10 in 0.2 mi Calm Calm - N/A Fog Fog
7:41 AM 41.0 °F - 39.2 °F 93% 30.10 in 0.5 mi Calm Calm - N/A Fog Fog
7:49 AM 41.0 °F - 39.2 °F 93% 30.10 in 1.0 mi Calm Calm - N/A   Mist
7:53 AM 42.8 °F - 39.2 °F 87% 30.10 in 1.0 mi Calm Calm - N/A   Mist
7:56 AM 42.8 °F - 39.2 °F 87% 30.10 in 0.5 mi Calm Calm - N/A Fog Fog
8:05 AM 42.8 °F - 39.2 °F 87% 30.10 in 0.2 mi Calm Calm - N/A Fog Fog
8:25 AM 42.8 °F - 39.2 °F 87% 30.10 in 0.5 mi Calm Calm - N/A Fog Fog
8:36 AM 42.8 °F - 39.2 °F 87% 30.11 in 1.0 mi Calm Calm - N/A   Overcast
8:53 AM 42.1 °F - 39.9 °F 92% 30.12 in 1.5 mi Calm Calm - N/A   Overcast
9:20 AM 44.6 °F - 41.0 °F 87% 30.11 in 3.0 mi Calm Calm - N/A   Mostly Cloudy
9:34 AM 44.6 °F - 42.8 °F 93% 30.10 in 10.0 mi Calm Calm - N/A   Scattered Clouds
9:53 AM 50.0 °F - 42.8 °F 76% 30.10 in 10.0 mi Variable 3.5 mph - N/A   Scattered Clouds
10:53 AM 55.9 °F - 45.0 °F 67% 30.08 in 9.0 mi WNW 3.5 mph - N/A   Clear
11:53 AM 64.9 °F - 48.0 °F 54% 30.06 in 10.0 mi Calm Calm - N/A   Clear
12:53 PM 72.0 °F - 51.1 °F 48% 30.03 in 10.0 mi SSW 9.2 mph - N/A   Clear
1:53 PM 73.9 °F - 52.0 °F 46% 30.01 in 10.0 mi SSE 5.8 mph - N/A   Clear
2:53 PM 77.0 °F - 52.0 °F 42% 29.99 in 10.0 mi SSW 6.9 mph - N/A   Clear
3:53 PM 78.1 °F - 51.1 °F 39% 29.96 in 10.0 mi Calm Calm - N/A   Clear
4:53 PM 77.0 °F - 53.1 °F 43% 29.96 in 10.0 mi South 5.8 mph - N/A   Clear
5:53 PM 75.0 °F - 54.0 °F 48% 29.97 in 10.0 mi South 9.2 mph - N/A   Scattered Clouds
6:53 PM 66.0 °F - 55.9 °F 70% 29.99 in 10.0 mi South 3.5 mph - N/A   Clear
7:53 PM 62.1 °F - 55.0 °F 78% 30.01 in 10.0 mi SSE 4.6 mph - N/A   Clear
8:53 PM 59.0 °F - 54.0 °F 83% 30.02 in 10.0 mi South 4.6 mph - N/A   Clear
9:53 PM 57.0 °F - 53.1 °F 87% 30.01 in 10.0 mi South 4.6 mph - N/A   Clear
10:53 PM 55.9 °F - 52.0 °F 87% 30.01 in 10.0 mi Calm Calm - N/A   Clear
11:53 PM 53.1 °F - 48.9 °F 86% 30.01 in 6.0 mi Calm Calm - N/A   Clear